When you browse on this site, cookies collect data to enhance your experience and personalize the content and advertising you see.
Visit our Privacy Policy to learn more. By continuing to use the site, you agree to this use of cookies and data.
  • En España
  • Lista de países
  • Para 7 días
  • Temperatura del agua
  • Mapa Satelital
  • El tiempo en el mapa
  • Informadores
  • user-avatar
    Iniciar sesión

    Tiempo cada hora Oran

    Hoy, 12 Diciembre, Miércoles

    Tiempo Temperatura Precipitaciones Viento Presión Humedad
    00:00 +13°C° 0 mm 4 mps 756 mmHg 84%
    01:00 +13°C° 0 mm 4 mps 756 mmHg 84%
    02:00 +13°C° 0 mm 4 mps 756 mmHg 84%
    03:00 +13°C° 0 mm 4 mps 755 mmHg 84%
    04:00 +13°C° 0 mm 4 mps 756 mmHg 84%
    05:00 +12°C° 0 mm 4 mps 756 mmHg 84%
    06:00 +12°C° 0 mm 5 mps 756 mmHg 84%
    07:00 +13°C° 0 mm 5 mps 756 mmHg 78%
    08:00 +14°C° 0 mm 5 mps 756 mmHg 73%
    09:00 +15°C° 0 mm 5 mps 756 mmHg 68%
    10:00 +16°C° 0 mm 5 mps 756 mmHg 64%
    11:00 +17°C° 0 mm 5 mps 756 mmHg 59%
    12:00 +19°C° 0 mm 6 mps 756 mmHg 54%
    13:00 +19°C° 0 mm 6 mps 755 mmHg 55%
    14:00 +19°C° 0 mm 6 mps 755 mmHg 56%
    15:00 +19°C° 0 mm 6 mps 755 mmHg 57%
    16:00 +17°C° 0 mm 5 mps 755 mmHg 63%
    17:00 +16°C° 0 mm 5 mps 755 mmHg 69%
    18:00 +15°C° 0 mm 4 mps 754 mmHg 75%
    19:00 +14°C° 0 mm 4 mps 755 mmHg 77%
    20:00 +14°C° 0 mm 4 mps 755 mmHg 78%
    21:00 +14°C° 0 mm 4 mps 755 mmHg 80%
    22:00 +14°C° 0 mm 4 mps 755 mmHg 79%
    23:00 +14°C° 0 mm 5 mps 754 mmHg 79%

    Mañana, 13 Diciembre, Jueves

    Tiempo Temperatura Precipitaciones Viento Presión Humedad
    00:00 +13°C° 0 mm 5 mps 754 mmHg 79%
    01:00 +13°C° 0 mm 5 mps 754 mmHg 78%
    02:00 +13°C° 0 mm 6 mps 753 mmHg 78%
    03:00 +13°C° 0 mm 6 mps 753 mmHg 78%
    04:00 +13°C° 0 mm 6 mps 753 mmHg 79%
    05:00 +12°C° 0 mm 7 mps 752 mmHg 80%
    06:00 +12°C° 0 mm 7 mps 752 mmHg 81%
    07:00 +12°C° 0 mm 8 mps 752 mmHg 76%
    08:00 +13°C° 0 mm 8 mps 752 mmHg 72%
    09:00 +15°C° 0 mm 9 mps 752 mmHg 67%
    10:00 +15°C° 0.2 mm 9 mps 752 mmHg 67%
    11:00 +14°C° 0.2 mm 10 mps 751 mmHg 67%
    12:00 +16°C° 0.2 mm 11 mps 750 mmHg 67%
    13:00 +16°C° 0.3 mm 10 mps 750 mmHg 63%
    14:00 +16°C° 0.3 mm 10 mps 749 mmHg 59%
    15:00 +16°C° 0.3 mm 10 mps 749 mmHg 55%
    16:00 +16°C° 1 mm 11 mps 749 mmHg 57%
    17:00 +15°C° 1 mm 12 mps 750 mmHg 60%
    18:00 +14°C° 1 mm 13 mps 750 mmHg 62%
    19:00 +14°C° 0.1 mm 13 mps 751 mmHg 61%
    20:00 +13°C° 0.1 mm 12 mps 752 mmHg 60%
    21:00 +12°C° 0.1 mm 11 mps 753 mmHg 59%
    22:00 +12°C° 0.1 mm 11 mps 753 mmHg 60%
    23:00 +12°C° 0.1 mm 11 mps 753 mmHg 60%

    Pasado mañana, 14 Diciembre, Viernes

    Tiempo Temperatura Precipitaciones Viento Presión Humedad
    00:00 +12°C° 0.1 mm 10 mps 754 mmHg 61%
    01:00 +11°C° 0.1 mm 10 mps 754 mmHg 62%
    02:00 +11°C° 0.1 mm 11 mps 754 mmHg 64%
    03:00 +11°C° 0.1 mm 11 mps 754 mmHg 66%
    04:00 +11°C° 0 mm 11 mps 754 mmHg 67%
    05:00 +11°C° 0 mm 10 mps 754 mmHg 68%
    06:00 +11°C° 0 mm 10 mps 755 mmHg 69%
    07:00 +11°C° 0 mm 10 mps 755 mmHg 67%
    08:00 +12°C° 0 mm 10 mps 756 mmHg 64%
    09:00 +13°C° 0 mm 10 mps 756 mmHg 62%
    10:00 +13°C° 0 mm 10 mps 757 mmHg 59%
    11:00 +14°C° 0 mm 10 mps 757 mmHg 55%
    12:00 +15°C° 0 mm 9 mps 757 mmHg 52%
    13:00 +15°C° 0 mm 9 mps 757 mmHg 53%
    14:00 +15°C° 0 mm 8 mps 757 mmHg 54%
    15:00 +15°C° 0 mm 8 mps 757 mmHg 55%
    16:00 +14°C° 0 mm 7 mps 757 mmHg 60%
    17:00 +13°C° 0 mm 6 mps 758 mmHg 65%
    18:00 +12°C° 0 mm 5 mps 758 mmHg 70%
    19:00 +12°C° 0 mm 5 mps 759 mmHg 71%
    20:00 +12°C° 0 mm 5 mps 759 mmHg 73%
    21:00 +12°C° 0 mm 5 mps 759 mmHg 74%
    22:00 +12°C° 0 mm 4 mps 760 mmHg 76%
    23:00 +12°C° 0 mm 4 mps 760 mmHg 77%

    15 Diciembre, Sábado

    Tiempo Temperatura Precipitaciones Viento Presión Humedad
    00:00 +12°C° 0 mm 4 mps 760 mmHg 79%
    01:00 +11°C° 0 mm 4 mps 760 mmHg 80%
    02:00 +10°C° 0 mm 5 mps 760 mmHg 81%
    03:00 +10°C° 0 mm 5 mps 759 mmHg 82%
    04:00 +10°C° 0 mm 5 mps 759 mmHg 81%
    05:00 +10°C° 0 mm 5 mps 759 mmHg 80%
    06:00 +10°C° 0 mm 5 mps 760 mmHg 80%
    07:00 +12°C° 0 mm 5 mps 760 mmHg 73%
    08:00 +12°C° 0 mm 5 mps 760 mmHg 67%
    09:00 +13°C° 0 mm 5 mps 761 mmHg 61%
    10:00 +15°C° 0 mm 4 mps 761 mmHg 53%
    11:00 +17°C° 0 mm 4 mps 760 mmHg 46%
    12:00 +18°C° 0 mm 4 mps 760 mmHg 39%
    13:00 +18°C° 0 mm 3 mps 760 mmHg 37%
    14:00 +19°C° 0 mm 3 mps 759 mmHg 36%
    15:00 +19°C° 0 mm 3 mps 759 mmHg 34%
    16:00 +18°C° 0 mm 2 mps 759 mmHg 40%
    17:00 +16°C° 0 mm 1 mps 759 mmHg 45%
    18:00 +15°C° 0 mm 1 mps 759 mmHg 51%
    19:00 +15°C° 0 mm 1 mps 759 mmHg 49%
    20:00 +15°C° 0 mm 1 mps 760 mmHg 47%
    21:00 +15°C° 0 mm 1 mps 760 mmHg 44%
    22:00 +15°C° 0 mm 1 mps 759 mmHg 43%
    23:00 +15°C° 0 mm 1 mps 759 mmHg 42%

    16 Diciembre, Domingo

    Tiempo Temperatura Precipitaciones Viento Presión Humedad
    00:00 +15°C° 0 mm 1 mps 759 mmHg 41%
    01:00 +15°C° 0 mm 2 mps 759 mmHg 41%
    02:00 +15°C° 0 mm 2 mps 759 mmHg 41%
    03:00 +15°C° 0 mm 2 mps 758 mmHg 40%
    04:00 +15°C° 0 mm 2 mps 758 mmHg 41%
    05:00 +15°C° 0 mm 2 mps 758 mmHg 41%
    06:00 +15°C° 0 mm 2 mps 758 mmHg 41%
    07:00 +16°C° 0 mm 2 mps 758 mmHg 40%
    08:00 +18°C° 0 mm 2 mps 759 mmHg 38%
    09:00 +19°C° 0 mm 2 mps 759 mmHg 37%
    10:00 +21°C° 0 mm 2 mps 758 mmHg 34%
    11:00 +23°C° 0 mm 2 mps 758 mmHg 30%
    12:00 +25°C° 0 mm 2 mps 758 mmHg 27%
    13:00 +25°C° 0 mm 2 mps 757 mmHg 27%
    14:00 +26°C° 0 mm 2 mps 757 mmHg 27%
    15:00 +26°C° 0 mm 2 mps 756 mmHg 27%
    16:00 +24°C° 0 mm 2 mps 756 mmHg 32%
    17:00 +22°C° 0 mm 1 mps 757 mmHg 38%
    18:00 +19°C° 0 mm 1 mps 757 mmHg 43%
    19:00 +18°C° 0 mm 2 mps 757 mmHg 43%
    20:00 +18°C° 0 mm 2 mps 757 mmHg 43%
    21:00 +17°C° 0 mm 3 mps 757 mmHg 43%
    22:00 +17°C° 0 mm 3 mps 757 mmHg 44%
    23:00 +17°C° 0 mm 3 mps 757 mmHg 45%

    17 Diciembre, Lunes

    Tiempo Temperatura Precipitaciones Viento Presión Humedad
    00:00 +16°C° 0 mm 3 mps 757 mmHg 46%
    01:00 +15°C° 0 mm 4 mps 757 mmHg 45%
    02:00 +15°C° 0 mm 4 mps 757 mmHg 45%
    03:00 +15°C° 0 mm 4 mps 757 mmHg 45%
    04:00 +15°C° 0 mm 4 mps 757 mmHg 45%
    05:00 +14°C° 0 mm 4 mps 757 mmHg 44%
    06:00 +14°C° 0 mm 4 mps 757 mmHg 44%
    07:00 +15°C° 0 mm 4 mps 757 mmHg 43%
    08:00 +18°C° 0 mm 4 mps 758 mmHg 43%
    09:00 +19°C° 0 mm 4 mps 758 mmHg 42%
    10:00 +20°C° 0 mm 4 mps 758 mmHg 41%
    11:00 +21°C° 0 mm 5 mps 758 mmHg 40%
    12:00 +21°C° 0 mm 5 mps 758 mmHg 39%
    13:00 +21°C° 0 mm 5 mps 758 mmHg 41%
    14:00 +21°C° 0 mm 4 mps 758 mmHg 42%
    15:00 +21°C° 0 mm 4 mps 758 mmHg 44%
    16:00 +20°C° 0 mm 4 mps 758 mmHg 51%
    17:00 +18°C° 0 mm 3 mps 758 mmHg 57%
    18:00 +17°C° 0 mm 3 mps 758 mmHg 63%
    19:00 +16°C° 0 mm 2 mps 759 mmHg 64%
    20:00 +16°C° 0 mm 2 mps 759 mmHg 64%
    21:00 +15°C° 0 mm 2 mps 759 mmHg 65%
    22:00 +15°C° 0 mm 2 mps 759 mmHg 65%
    23:00 +14°C° 0 mm 2 mps 759 mmHg 66%
    Mostrar más